Weather History for Port Weller, ON

Change the Weather History Date:

Wednesday, September 12, 2012

  Actual Average Record
Temperature  
Mean Temperature 72 °F -  
Max Temperature 80 °F - - ()
Min Temperature 64 °F - - ()
Cooling Degree Days 7    
Growing Degree Days 22 (Base 50)    
Moisture  
Dew Point 56 °F    
Average Humidity 56    
Maximum Humidity 75    
Minimum Humidity 25    
Precipitation  
Precipitation 0.00 in - - ()
Sea Level Pressure  
Sea Level Pressure 30.22 in    
Wind  
Wind Speed 7 mph ()    
Max Wind Speed 10 mph    
Max Gust Speed 17 mph    
T = Trace of Precipitation, MM = Missing Value Source: Averaged Metar Reports

Daily Weather History Graph

Daily Weather History Graph

Search for Another Location

Airport:

Trip Planner

Search our weather history database for the weather conditions in past years. The results will help you decide how hot, cold, wet, or windy it might be!

Date:

Astronomy

Sep. 12, 2012 Rise Set
Actual Time 6:53 AM EDT 7:31 PM EDT
Civil Twilight 6:24 AM EDT 8:00 PM EDT
Nautical Twilight 5:50 AM EDT 8:34 PM EDT
Astronomical Twilight 5:15 AM EDT 9:09 PM EDT
Moon 3:03 AM EDT (9/12) 5:22 PM EDT (9/12)
Length of Visible Light 13h 35m
Length of Day
12h 37m
Waning Crescent, 14% of the Moon is Illuminated
Sep 12
Waning Crescent
Sep 15
New
Sep 22
First Quarter
Sep 29
Full
Oct 8
Last Quarter

Hourly Weather History & Observations

Time (EDT) Temp. Dew Point Humidity Pressure Visibility Wind Dir Wind Speed Gust Speed Precip Events Conditions
12:00 AM 65.7 °F 54.5 °F 67% 30.20 in - South 9.2 mph - N/A   Unknown
1:00 AM 66.2 °F 55.0 °F 67% 30.19 in - South 8.1 mph - N/A   Unknown
2:00 AM 65 °F 55 °F 63% 30.20 in - South 8.1 mph - -  
2:00 AM 65.1 °F 55.4 °F 71% 30.20 in - South 8.1 mph - N/A   Unknown
3:00 AM 64.9 °F 56.8 °F 75% 30.20 in - South 5.8 mph - N/A   Unknown
4:00 AM 66.7 °F 56.5 °F 70% 30.20 in - South 8.1 mph - N/A   Unknown
5:00 AM 66 °F 56 °F 62% 30.21 in - South 8.1 mph - -  
5:00 AM 65.8 °F 55.9 °F 70% 30.21 in - South 8.1 mph - N/A   Unknown
6:00 AM 65.5 °F 56.3 °F 72% 30.22 in - South 8.1 mph - N/A   Unknown
7:00 AM 66.2 °F 57.6 °F 74% 30.24 in - South 8.1 mph - N/A   Unknown
8:00 AM 69 °F 58 °F 60% 30.25 in - South 6.9 mph - -  
8:00 AM 68.5 °F 58.3 °F 70% 30.25 in - South 6.9 mph - N/A   Unknown
9:00 AM 71.2 °F 59.4 °F 66% 30.25 in - SSW 5.8 mph - N/A   Unknown
10:00 AM 73.6 °F 58.1 °F 58% 30.26 in - SSW 8.1 mph - N/A   Unknown
11:00 AM 76 °F 58 °F 44% 30.25 in - SSW 6.9 mph - -  
11:00 AM 75.7 °F 58.1 °F 54% 30.25 in - SSW 6.9 mph - N/A   Unknown
12:00 PM 77.4 °F 60.4 °F 56% 30.25 in - SSW 5.8 mph - N/A   Unknown
1:00 PM 79.2 °F 59.2 °F 50% 30.23 in - SSW 3.5 mph - N/A   Unknown
2:00 PM 79 °F 56 °F 35% 30.22 in - SW 4.6 mph - -  
2:00 PM 79.0 °F 56.1 °F 45% 30.22 in - SW 4.6 mph - N/A   Unknown
3:00 PM 79.9 °F 55.2 °F 43% 30.21 in - SSW 8.1 mph - N/A   Unknown
4:00 PM 79.5 °F 50.9 °F 37% 30.20 in - South 10.4 mph 17.3 mph N/A   Unknown
5:00 PM 79 °F 50 °F 25% 30.19 in - SSW 9.2 mph - -  
5:00 PM 79.0 °F 49.8 °F 36% 30.19 in - SSW 9.2 mph - N/A   Unknown
6:00 PM 77.5 °F 54.1 °F 44% 30.19 in - SSW 5.8 mph - N/A   Unknown
7:00 PM 75.6 °F 55.0 °F 49% 30.20 in - SSW 5.8 mph - N/A   Unknown
8:00 PM 73 °F 54 °F 41% 30.21 in - South 5.8 mph - -  
8:00 PM 72.7 °F 54.0 °F 52% 30.21 in - South 5.8 mph - N/A   Unknown
9:00 PM 70.7 °F 53.1 °F 54% 30.22 in - South 5.8 mph - N/A   Unknown
10:00 PM 69.3 °F 54.7 °F 60% 30.24 in - South 3.5 mph - N/A   Unknown
11:00 PM 68 °F 58 °F 61% 30.24 in - South 5.8 mph - -  
11:00 PM 67.6 °F 57.7 °F 71% 30.24 in - South 5.8 mph - N/A   Unknown